Location: Unspecified
(58.3775°N, 0.0000°E)
Time: 01:09:05
(UTC+00:00)

IRIDIUM 112 - Visible Passes

Search period start: 04 April 2026 00:00
Search period end: 14 April 2026 00:00
Orbit: 776 x 779 km, 86.4° (Epoch: 29 March)

Date Brightness Start Highest point End Pass type
(mag) Time Alt. Az. Time Alt. Az. Time Alt. Az.
4 Apr ? 19:32:55 10° S 19:38:09 77° W 19:43:25 10° N visible
4 Apr ? 21:16:14 10° WSW 21:19:49 18° WNW 21:23:25 10° NNW visible
5 Apr ? 04:13:52 10° NNE 04:16:10 13° NE 04:18:28 10° E visible
5 Apr ? 20:41:29 10° WSW 20:45:52 27° WNW 20:50:16 10° N visible
6 Apr ? 20:07:09 10° SW 20:12:02 39° WNW 20:16:56 10° N visible
6 Apr ? 21:54:15 10° NW 21:54:23 10° NW 21:54:32 10° NW visible
7 Apr ? 19:33:09 10° SSW 19:38:18 59° W 19:43:30 10° N visible
7 Apr ? 21:17:20 10° W 21:20:14 15° NW 21:23:08 10° NNW visible
8 Apr ? 04:13:26 10° NNE 04:16:37 16° ENE 04:19:47 10° E visible
8 Apr ? 20:42:15 10° WSW 20:46:13 21° WNW 20:50:10 10° NNW visible
9 Apr ? 03:41:06 10° NE 03:42:29 11° NE 03:43:52 10° ENE visible
9 Apr ? 20:07:41 10° SW 20:12:18 31° WNW 20:16:56 10° N visible
10 Apr ? 19:33:30 10° SSW 19:38:30 46° WNW 19:43:33 10° N visible
10 Apr ? 21:18:50 10° WNW 21:20:42 12° NW 21:22:33 10° NNW visible
11 Apr ? 04:13:12 10° NNE 04:17:01 20° ENE 04:20:49 10° ESE visible
11 Apr ? 20:43:13 10° W 20:46:35 17° WNW 20:49:59 10° NNW visible
12 Apr ? 03:40:19 10° NNE 03:42:57 14° NE 03:45:36 10° E visible
12 Apr ? 20:08:21 10° WSW 20:12:36 25° WNW 20:16:53 10° N visible
